Location: Dompnac
(44.5644°N, 4.1026°E)
Time: 11:02:29
(UTC+00:00)

USA 238 - Pass Details

Date: 19 September 2020
Orbit: 1006 x 1206 km, 63.4° (Epoch: 28 October)

Event Time Altitude Azimuth Distance (km) Brightness Sun altitude
Rises 18:47:40 0° 323° (NW) 3,929 7.5 -11.7°
Reaches altitude 10° 18:50:26 10° 329° (NNW) 2,999 6.7 -12.2°
Maximum altitude 18:57:22 49° 43° (NE) 1,465 4.2 -13.4°
Enters shadow 19:02:36 19° 111° (ESE) 2,489 5.0 -14.3°
